Regional Weather Roundup
Issued by NWS

Home | Current Version | Previous Version | Text Only | Print | Product List | Glossary On
Versions: 1 2 3 4 5 6 7 8 9 10 11 12 13 14 15 16 17 18 19 20 21 22 23 24 25 26 27 28 29 30 31 32 33 34 35 36 37 38 39 40 41 42 43 44 45 46 47 48 49 50
000
ASHW40 PHFO 230143
RWRHI

WEATHER ROUNDUP FOR HAWAII
NATIONAL WEATHER SERVICE HONOLULU HI
300 PM HST MON DEC 22 2014

THIS IS AN AUTOMATED REPORT THAT HAS NOT BEEN QUALITY CONTROLLED.

NOTE..."FAIR" INDICATES FEW OR NO CLOUDS BELOW 12,000 FEET WITH NO
SIGNIFICANT WEATHER AND/OR OBSTRUCTIONS TO VISIBILITY.

* - THESE SITES REPORT LIMITED FIELDS

HIZ001>004-230200-
KAUAI-NIIHAU-

CITY           SKY/WX    TMP DP  RH WIND       PRES   REMARKS
LIHUE APT      LGT RAIN  70  63  78 N25G32    30.04F
PORT ALLEN*      N/A     77 N/A N/A SE7         N/A
POIPU*           N/A     73 N/A N/A N13G26      N/A
PRINCEVILLE*     N/A     70 N/A N/A MISG        N/A
KOKOLE POINT*    N/A     72 N/A N/A MISG        N/A
MOLOAA DAIRY*  NOT AVBL
WAIMEA HTS*      N/A     79  59  50 S8G15       N/A
PUU OPAE*        N/A     70  57  64 NE6G23      N/A
PUU LUA*       NOT AVBL
MAKAHA RIDGE*  NOT AVBL
$$

HIZ005>011-230200-
OAHU-

CITY           SKY/WX    TMP DP  RH WIND       PRES   REMARKS
HONOLULU       PTSUNNY   76  64  66 NE14      29.97S
KALAELOA       PTSUNNY   74  63  68 N8G23     29.99S
KANEOHE MCB    CLOUDY    72  65  78 N29G35    29.98F HAZE
WHEELER FIELD  LGT RAIN  66  64  94 N16G23    29.99S
BELLOWS*         N/A    N/A N/A N/A N15G36      N/A
KAHUKU*          N/A    N/A N/A N/A VRB7G25     N/A
WHEELER*       NOT AVBL
WAIANAE HARBOR NOT AVBL
DILLINGHAM*      N/A     70  64  83 VRB3G12     N/A
KAHUKU TRN*      N/A     66  61  82 N14G29      N/A
KAWAILOA*        N/A     64  63  94 VRB13G26    N/A
KII*             N/A     72  66  83 CALM        N/A
MAKUA RANGE*     N/A     72  63  73 E18G35      N/A
OAHU FOREST NW   N/A     61 -15   4 CALM        N/A
SCHOFIELD BRK*   N/A     64  63  94 MISG        N/A
SCHOFIELD S*   NOT AVBL
WAIANAE VLY*     N/A     64  63  94 VRB13G33    N/A
KUAOKALA*        N/A     66  59  77 CALM        N/A
HONOULIUULI*   NOT AVBL
MOKUOLOE IS*     N/A    N/A N/A N/A MISG        N/A
PALEHUA*         N/A     77  63  61 CALM        N/A
WAIAWA PHB*    NOT AVBL
$$

HIZ012>013-230200-
MOLOKAI-

CITY           SKY/WX    TMP DP  RH WIND       PRES   REMARKS
MOLOKAI AIRPT  LGT RAIN  68  68 100 N17G25    29.97F
KALAUPAPA      NOT AVBL
MAKAPULAPAI*     N/A     70  66  88 NE9         N/A
MOLOKAI 1*       N/A     61  61 100 NW3G18      N/A
PUU ALII*        N/A     58  57  98 CALM        N/A
$$

HIZ016-230200-
KAHOOLAWE-

CITY           SKY/WX    TMP DP  RH WIND       PRES   REMARKS
KAHOOLAWE*       N/A     72 N/A N/A NW8G14      N/A
HAKIOAWA*        N/A     74  65  74 MISG      30.36F
HONOKANAIA*      N/A     78  66  66 NW12G20   29.94F
KANELOA*         N/A     77  64  65 W3G10     29.17F
KEALIALALO*    NOT AVBL
LUA MAKIKA*    NOT AVBL
$$

HIZ014>015-230200-
LANAI-

CITY           SKY/WX    TMP DP  RH WIND       PRES   REMARKS
LANAI CITY     PTSUNNY   79  64  61 N10       29.99F
LANAI 1*         N/A     66  66 100 N18G31      N/A
$$

HIZ017>028-230200-
MAUI-

CITY           SKY/WX    TMP DP  RH WIND       PRES   REMARKS
KAHULUI        LGT RAIN  73  66  78 N18G28    29.94F
KAPALUA-W MAUI PTSUNNY   77  68  73 N15       29.95
HANA AIRPORT   HVY RAIN  68  66  94 SW13      29.97S VSB 3/4
HANA*            N/A     70 N/A N/A SW6G14      N/A
HALEAKALA SUMM   N/A     43  39  87 SW9         N/A
MAALAEA BAY*   NOT AVBL
HALEAKALA*     NOT AVBL
KAUPO GAP*       N/A     64  59  82 N1G12       N/A
KULA 1*          N/A     54  49  84 NW3G12      N/A
$$

HIZ023>026-230200-
BIG ISLAND OF HAWAII COAST AND LOWER SLOPES-

CITY           SKY/WX    TMP DP  RH WIND       PRES   REMARKS
KAILUA KONA    SUNNY     82  67  60 NW20      29.89S
HILO           SUNNY     80  66  62 NE8       29.92S
HONOKAA*       NOT AVBL
KAWAIHAE MWT*    N/A     84 N/A N/A NW12G17     N/A
KAWAIHAE*        N/A     82 N/A N/A W9          N/A
SOUTH POINT*     N/A     75 N/A N/A E8          N/A
UPOLU AIRPORT*   N/A    N/A N/A N/A N9          N/A
KAMUELA*       CLEAR     73  59  60 NE14      30.02S
HAKALAU*         N/A     56  51  84 NE3         N/A
KALOKO-HONOKO*   N/A     82  66  57 NW16G23   29.87F
PALI 2*          N/A     66  63  88 SE6G13      N/A
KEALAKOMO*       N/A     90  75  62 E8          N/A  HX 100
KAUPULEHU*       N/A     75  63  64 NW10        N/A
KAPAPALA*        N/A     72  62  71 CALM        N/A
LOWER KAHUKU*    N/A     66  61  82 SE2         N/A
PUHE CS*       NOT AVBL
PUHO CS*         N/A     81  64  56 W3          N/A
PTA KEAMUKU*     N/A     72  57  60 CALM        N/A
WAIKOLOA*        N/A     79  61  53 W7G15       N/A
$$

HIZ027>028-230200-
BIG ISLAND OF HAWAII INTERIOR AND SUMMMITS-

CITY           SKY/WX    TMP DP  RH WIND       PRES   REMARKS
BRADSHAW FIELD MOSUNNY   63  46  53 W6G13     30.23F
MK VISITOR CEN NOT AVBL
MAUNA KEA*       N/A     32  18  55 NW45        N/A  WCI  15
MAUNA LOA*       N/A     43  32  65 MISG        N/A
MAUNA LOA 1*   NOT AVBL
PTA KIPUKA*      N/A     64  52  63 NW7G14      N/A
PTA RANGE 17*    N/A     61  50  67 NW8G15      N/A
PTA WEST*        N/A     66  54  63 NW10        N/A
NENE CABIN*      N/A    N/A N/A N/A S8G17       N/A
AHUMOA*          N/A     56  50  81 W5G12       N/A
PTA PORTABLE*  NOT AVBL
PUU MALI*      NOT AVBL
$$

HIC003-230200-
NORTHWEST ISLANDS-

CITY           SKY/WX    TMP DP  RH WIND       PRES   REMARKS
MIDWAY ISLAND  SUNNY     70  50  49 E15G24    30.37S
MIDWAY NOS*    NOT AVBL
FRENCH FRIGATE NOT AVBL
$$

PHZ110>124-180-230200-
BUOY REPORTS

STATION/POSITION TIME  TEMP    WIND        PRES    WAVE   SWELL
                       AIR SEA DIR/SP/G            HT/PER HT/DIR
                 (UTC) (F)     (DEG/KT/KT) (MB)    (FT/S) (FT/D)
BUOY 51001       NOT AVBL
BUOY 51101       0100   69 76   20/ 19/ 25 1019.6F  12/15  10/310
BUOY 51100       0000   72     200/  8     1013.4
BUOY 51003       0100   73 79   20/ 19/ 23 1014.6F  14/10  11
BUOY 51004       0025   77 78   70/ 14/ 17 1011.6F  10/17  10/290
BARBERS PT BUOY  NOT AVBL
WAIMEA BAY BUOY  0100      77                N/A    13/15   8/300
KAILUA BAY BUOY  0100      77                N/A    11/ 8   3/ 20
LANAI BUOY       0100      78                N/A     5/17   3/270
BARBERS PT 2     0100      78                N/A     7/15   5/300
PAUWELA MAUI     0100      77                N/A    11/17   7/300
HILO             0100      79                N/A     8/10
KANEOHE BAY BUOY 0100      77                N/A    10/ 8   3/ 10
HANALEI KAUAI    NOT AVBL
KAHULUI HARBOR   0100   73 77  330/ 11/ 12 1013.8F
HONOLULU HARBOR  0100   72      80/  5/ 10 1015.4S
KILO NALU        NOT AVBL
HILO HARBOR      0100   81      50/  8/  9 1012.7S
MOKUOLOE         0100   73 76   10/ 21/ 28 1015.6F
NAWILIWILI       0100      77                N/A
WHOTS BUOY       NOT AVBL
BUOY 51028       NOT AVBL
$$

......................KEY........................................
  SKY/WX - SKY CONDITIONS/PRESENT WEATHER
  TMP    - TEMPERATURE IN FAHRENHEIT
  DWPT   - DEWPOINT IN FAHRENHEIT
  RH     - RELATIVE HUMIDITY IN PERCENT
  WIND   - DIRECTION AND SPEED /MPH FOR ISLANDS...KTS FOR BUOYS/
  PRES   - MEAN SEA LEVEL PRESSURE IN INCHES OF HG
  VSB    - VISIBILITY IN MILES
  HX     - HEAT INDEX
  WCI    - WIND CHILL INDEX
  VRB    - VARIABLE WIND DIRECTION
  N/A    - NOT AVAILABLE


USA.gov is the U.S. government's official web portal to all federal, state and local government web resources and services.